Total_Precipitation_Accumulation
3.16 3.26 3.30 3.41 3.20 3.10 3.07 2.74 2.41 2.46 2.53 2.44 2.13 2.04 2.07 2.05 2.19 2.49 2.79 2.66 2.54 2.71 3.07 3.36 3.60 3.65 3.59 3.60 3.58 3.52 3.42 3.33 3.24 3.01 2.75 2.52 2.35 2.30 2.32 2.44 2.45 2.37 2.30
3.49 3.55 3.62 3.63 3.42 3.38 3.35 3.06 2.82 2.95 2.86 2.72 2.41 2.30 2.29 2.30 2.38 2.58 2.82 2.84 2.44 2.27 2.60 3.13 3.53 3.80 3.87 3.88 3.71 3.52 3.47 3.40 3.37 3.16 2.94 2.70 2.50 2.39 2.33 2.33 2.41 2.38 2.28
3.81 3.86 3.92 3.80 3.58 3.54 3.56 3.45 3.29 3.23 3.06 2.79 2.64 2.63 2.60 2.46 2.41 2.63 2.83 2.87 2.65 2.44 2.53 2.75 3.06 3.44 3.89 4.10 4.00 3.80 3.64 3.58 3.48 3.31 3.13 2.93 2.70 2.51 2.38 2.33 2.31 2.31 2.27
3.72 4.00 4.03 3.82 3.61 3.55 3.68 3.81 3.65 3.51 3.41 3.26 3.01 2.73 2.65 2.61 2.50 2.53 2.55 2.63 2.81 2.67 2.67 2.61 2.77 3.05 3.47 3.81 4.11 4.16 3.99 3.81 3.64 3.47 3.34 3.17 3.00 2.78 2.58 2.50 2.41 2.31 2.27
3.82 4.10 4.20 4.16 3.83 3.79 3.92 3.78 3.96 3.79 3.69 3.42 2.99 2.83 2.58 2.41 2.41 2.42 2.52 2.47 2.51 2.57 2.59 2.57 2.68 2.80 3.08 3.46 3.78 4.01 4.04 3.95 3.69 3.44 3.37 3.32 3.16 2.97 2.79 2.64 2.52 2.36 2.26
3.93 4.19 4.22 4.29 4.12 4.13 4.33 4.31 4.32 4.07 3.71 3.45 3.00 2.81 2.53 2.26 2.15 2.24 2.22 2.23 2.19 2.16 2.25 2.31 2.52 2.50 2.69 2.99 3.41 3.74 4.18 4.27 3.99 3.74 3.59 3.47 3.24 2.95 2.76 2.71 2.65 2.52 2.42
4.54 4.83 4.66 4.60 4.36 4.27 4.32 4.31 4.16 4.05 3.84 3.71 3.60 3.24 2.71 2.27 2.06 1.94 1.96 2.03 2.02 1.96 2.04 2.21 2.30 2.30 2.36 2.48 2.67 3.09 3.81 4.18 4.10 3.94 3.86 3.72 3.45 3.12 2.88 2.84 2.84 2.74 2.59
5.15 5.16 5.11 4.74 4.51 4.38 4.23 4.13 4.03 3.94 3.68 3.61 3.72 3.71 3.22 2.82 2.27 1.78 1.88 1.91 1.92 1.98 1.98 1.88 1.95 1.96 1.91 2.12 2.23 2.56 3.09 3.43 3.76 3.98 4.01 3.71 3.57 3.37 3.16 3.01 2.96 2.88 2.77
4.98 4.93 4.86 4.63 4.49 4.27 4.12 4.07 3.98 3.93 3.73 3.61 3.65 3.87 3.69 3.14 2.56 2.11 1.89 1.85 1.88 1.95 1.92 1.85 1.82 1.82 1.80 1.96 2.05 2.26 2.59 2.73 3.07 3.44 3.74 3.52 3.43 3.49 3.42 3.30 3.22 3.18 3.09
4.66 4.53 4.59 4.52 4.37 4.14 3.98 3.66 3.64 3.75 3.89 3.68 3.52 3.28 3.13 2.89 2.83 2.63 2.30 2.06 1.93 1.90 1.86 1.78 1.69 1.77 1.83 2.00 2.19 2.20 2.28 2.33 2.51 2.78 2.98 3.00 3.04 3.19 3.34 3.23 3.24 3.33 3.34
4.33 4.06 4.11 4.05 3.87 3.68 3.54 3.34 3.33 3.37 3.46 3.44 3.39 3.24 3.11 2.90 2.68 2.67 2.55 2.29 2.14 1.94 1.84 1.84 1.79 1.79 1.87 1.96 2.07 2.11 2.15 2.12 2.18 2.30 2.40 2.50 2.65 2.87 3.07 3.16 3.24 3.39 3.51
4.11 3.78 3.46 3.43 3.39 3.25 3.06 2.99 2.97 2.94 3.02 3.08 3.14 3.03 2.92 2.85 2.74 2.74 2.64 2.44 2.32 2.12 1.98 1.96 1.88 1.82 1.85 1.82 1.75 1.94 1.90 1.90 1.92 2.01 2.07 2.12 2.21 2.41 2.63 2.84 3.11 3.32 3.44
3.61 3.33 3.08 2.98 2.92 2.88 2.77 2.67 2.68 2.56 2.51 2.60 2.59 2.67 2.68 2.56 2.45 2.56 2.67 2.56 2.33 2.18 2.10 1.98 1.80 1.73 1.69 1.76 1.79 1.79 1.65 1.66 1.59 1.57 1.65 1.78 1.93 2.07 2.18 2.35 2.58 2.85 3.05
3.06 2.82 2.69 2.48 2.29 2.19 2.13 2.24 2.31 2.27 2.23 2.20 2.12 2.36 2.43 2.32 2.30 2.34 2.42 2.64 2.62 2.38 2.27 2.06 1.85 1.72 1.67 1.68 1.75 1.61 1.47 1.47 1.39 1.38 1.43 1.49 1.65 1.85 1.94 1.98 1.99 2.06 2.23
2.42 2.33 2.22 2.16 2.07 1.96 1.90 1.91 1.97 2.06 2.06 1.98 1.98 2.11 2.10 2.03 2.06 2.10 2.22 2.41 2.70 2.65 2.44 2.14 2.01 1.86 1.79 1.78 1.87 1.59 1.55 1.50 1.43 1.44 1.46 1.49 1.57 1.76 1.83 1.85 1.76 1.65 1.62
2.11 1.98 1.92 1.87 1.87 1.82 1.80 1.86 1.84 1.90 1.97 1.87 1.85 1.84 1.81 1.76 1.87 1.87 1.98 2.10 2.30 2.54 2.43 1.99 1.86 1.82 1.82 1.70 1.95 1.72 1.62 1.58 1.50 1.66 1.77 1.71 1.70 1.87 2.00 2.06 1.92 1.74 1.65
1.89 1.79 1.71 1.66 1.62 1.64 1.65 1.69 1.63 1.58 1.57 1.56 1.47 1.45 1.49 1.59 1.75 1.74 1.75 1.89 2.10 2.34 2.45 2.02 1.81 1.89 2.04 1.98 2.00 1.90 1.73 1.70 1.67 2.01 2.16 2.35 2.12 2.03 2.11 2.14 2.10 1.86 1.69
1.68 1.66 1.55 1.49 1.45 1.40 1.37 1.33 1.33 1.35 1.36 1.35 1.35 1.41 1.41 1.49 1.64 1.68 1.73 1.78 1.94 2.21 2.38 2.32 2.08 2.06 2.07 2.03 2.11 2.07 1.82 1.67 1.69 2.11 2.33 2.61 2.55 2.29 2.29 2.19 2.09 1.92 1.74
1.53 1.49 1.46 1.42 1.36 1.38 1.29 1.18 1.17 1.24 1.22 1.20 1.27 1.34 1.42 1.67 1.70 1.69 1.75 1.79 1.86 1.96 2.30 2.36 2.15 2.16 2.15 2.15 2.34 2.18 1.99 1.97 1.64 1.92 2.31 2.61 2.70 2.69 2.75 2.65 2.40 2.06 1.81
1.49 1.44 1.45 1.37 1.32 1.30 1.28 1.22 1.18 1.22 1.23 1.20 1.24 1.32 1.42 1.62 1.73 1.82 1.77 1.87 1.92 2.06 2.23 2.36 2.30 2.27 2.31 2.33 2.38 2.33 2.18 2.03 1.81 1.72 2.16 2.57 2.85 2.89 3.03 3.13 2.88 2.44 2.06
1.41 1.41 1.41 1.32 1.31 1.28 1.21 1.21 1.20 1.22 1.30 1.31 1.25 1.24 1.28 1.40 1.54 1.54 1.42 1.57 1.78 2.05 2.12 2.30 2.35 2.37 2.31 2.40 2.27 2.06 2.01 1.98 1.82 1.69 1.89 2.21 2.87 3.17 3.20 3.28 3.19 2.73 2.29
1.48 1.46 1.44 1.38 1.31 1.06 1.14 1.16 1.15 1.22 1.30 1.31 1.28 1.26 1.19 1.15 1.11 1.10 1.14 1.22 1.43 1.75 2.12 2.37 2.31 2.30 2.19 2.11 2.13 2.08 2.10 2.12 2.05 1.72 1.71 1.93 2.44 3.20 3.38 3.29 3.25 2.68 2.18
1.47 1.41 1.38 1.39 1.32 1.18 1.16 1.08 1.09 1.21 1.33 1.41 1.45 1.41 1.10 0.93 1.04 1.05 1.10 1.16 1.28 1.46 1.79 2.21 2.32 2.12 2.10 2.06 2.16 2.16 2.23 2.24 2.10 1.78 1.86 2.06 2.36 3.00 3.10 3.04 3.00 2.37 1.94
1.44 1.44 1.40 1.37 1.35 1.23 1.16 1.07 1.10 1.16 1.31 1.34 1.34 1.36 1.34 1.20 1.10 1.19 1.26 1.32 1.42 1.52 1.63 1.73 2.08 1.95 1.78 1.87 2.01 2.06 2.22 2.25 2.12 1.90 1.97 2.24 2.40 2.83 2.74 2.77 2.68 2.19 1.85
1.42 1.37 1.36 1.40 1.45 1.38 1.21 1.09 1.02 1.03 1.17 1.22 1.18 1.16 1.14 1.17 1.24 1.41 1.53 1.72 1.80 1.88 1.73 1.87 2.03 1.97 1.85 1.84 1.79 1.95 2.29 2.36 2.21 2.00 2.00 2.32 2.44 2.52 2.57 2.57 2.28 2.10 1.82
1.43 1.38 1.35 1.39 1.39 1.29 1.12 0.94 0.91 0.91 1.06 1.13 1.21 1.18 1.05 0.99 1.14 1.32 1.55 1.88 2.00 2.06 1.92 2.01 2.25 2.24 2.04 2.07 2.09 2.05 2.32 2.46 2.37 2.25 1.97 2.10 2.28 2.32 2.51 2.37 2.14 1.97 1.89